Fairbanks Ft. Wainwright, AK

5:12 PM AKDT on April 24, 2018 (GMT -0800)
Ladd Army Air Field

Weather History for PAFB - October, 2013

Change the Weather History Date:

Saturday, October 12, 2013

  Actual Average Record
Temperature  
Mean Temperature 42 °F -  
Max Temperature 53 °F 31 °F 54 °F (2016)
Min Temperature 32 °F 18 °F 10 °F (2000)
Degree Days  
Heating Degree Days 22    
Moisture  
Dew Point 30 °F    
Average Humidity 63    
Maximum Humidity 85    
Minimum Humidity 43    
Precipitation  
Precipitation 0.00 in - - ()
Sea Level Pressure  
Sea Level Pressure 29.75 in    
Wind  
Wind Speed 6 mph (ENE)    
Max Wind Speed 10 mph    
Max Gust Speed -    
Visibility 10 miles    
Events      
Averages and records for this station are not official NWS values.
T = Trace of Precipitation, MM = Missing Value Source: NWS Daily Summary

Daily Weather History Graph

Daily Weather History Graph

Search for Another Location

Airport or City:

Astronomy

Oct. 12, 2013 Rise Set
Actual Time 8:34 AM AKDT 6:37 PM AKDT
Civil Twilight 7:45 AM AKDT 7:26 PM AKDT
Nautical Twilight 6:48 AM AKDT 8:23 PM AKDT
Astronomical Twilight 5:50 AM AKDT 9:21 PM AKDT
Moon 4:55 PM AKDT (10/12) No Moon Set
Length of Visible Light 11h 41m
Length of Day
10h 02m
First Quarter, 60% of the Moon is Illuminated
Oct 12
First Quarter
Oct 18
Full
Oct 26
Last Quarter
Nov 3
New
Nov 9
First Quarter

Hourly Weather History & Observations

Time (AKDT) Temp. Windchill Dew Point Humidity Pressure Visibility Wind Dir Wind Speed Gust Speed Precip Events Conditions
12:56 AM 32.0 °F - 28.0 °F 85% 29.81 in 10.0 mi Calm Calm - N/A   Clear
1:56 AM 33.1 °F 25.5 °F 28.9 °F 85% 29.79 in 10.0 mi ENE 9.2 mph - N/A   Clear
2:56 AM 32.0 °F 24.2 °F 28.0 °F 85% 29.77 in 10.0 mi ENE 9.2 mph - N/A   Clear
3:56 AM 33.1 °F - 28.0 °F 82% 29.76 in 10.0 mi Calm Calm - N/A   Clear
4:56 AM 34.0 °F 28.0 °F 28.0 °F 79% 29.75 in 10.0 mi ENE 6.9 mph - N/A   Clear
5:56 AM 34.0 °F 27.2 °F 28.0 °F 79% 29.74 in 10.0 mi ENE 8.1 mph - N/A   Mostly Cloudy
6:56 AM 37.0 °F 32.4 °F 28.9 °F 73% 29.74 in 10.0 mi East 5.8 mph - N/A   Overcast
7:56 AM 37.9 °F 34.4 °F 28.9 °F 70% 29.75 in 10.0 mi East 4.6 mph - N/A   Overcast
8:56 AM 39.0 °F 34.0 °F 30.0 °F 70% 29.74 in 10.0 mi East 6.9 mph - N/A   Partly Cloudy
9:56 AM 39.0 °F 33.4 °F 28.9 °F 67% 29.74 in 10.0 mi ENE 8.1 mph - N/A   Clear
10:56 AM 41.0 °F 38.0 °F 30.0 °F 65% 29.75 in 10.0 mi East 4.6 mph - N/A   Scattered Clouds
11:56 AM 43.0 °F 41.3 °F 32.0 °F 65% 29.76 in 10.0 mi East 3.5 mph - N/A   Mostly Cloudy
12:56 PM 48.0 °F - 30.9 °F 52% 29.75 in 10.0 mi East 9.2 mph - N/A   Overcast
1:56 PM 50.0 °F - 30.9 °F 48% 29.76 in 10.0 mi East 8.1 mph - N/A   Overcast
2:56 PM 52.0 °F - 30.9 °F 45% 29.75 in 10.0 mi East 6.9 mph - N/A   Overcast
3:56 PM 53.1 °F - 30.9 °F 43% 29.74 in 10.0 mi East 9.2 mph - N/A   Partly Cloudy
4:56 PM 51.1 °F - 30.9 °F 46% 29.74 in 10.0 mi East 8.1 mph - N/A   Clear
5:56 PM 48.9 °F - 30.9 °F 50% 29.74 in 10.0 mi ENE 8.1 mph - N/A   Clear
6:56 PM 46.0 °F 42.5 °F 30.0 °F 54% 29.74 in 10.0 mi ENE 6.9 mph - N/A   Clear
7:56 PM 45.0 °F 40.6 °F 30.0 °F 56% 29.74 in 10.0 mi ENE 8.1 mph - N/A   Clear
8:56 PM 43.0 °F 37.7 °F 28.9 °F 58% 29.72 in 10.0 mi ENE 9.2 mph - N/A   Clear
9:56 PM 43.0 °F 38.2 °F 28.9 °F 58% 29.72 in 10.0 mi ENE 8.1 mph - N/A   Clear
10:56 PM 44.1 °F 39.0 °F 28.9 °F 55% 29.71 in 10.0 mi East 9.2 mph - N/A   Clear
11:56 PM 46.0 °F 41.0 °F 28.9 °F 51% 29.68 in 10.0 mi ENE 10.4 mph - N/A   Clear